Location: Bacharowice
(49.9333°N, 19.5833°E)
Time: 09:18:47
(UTC+00:00)

Cosmos 1354 Rocket - Pass Details

Date: 11 May 2021
Orbit: 763 x 784 km, 74.0° (Epoch: 21 June)

Event Time Altitude Azimuth Distance (km) Brightness Sun altitude
Rises 19:35:39 0° 208° (SSW) 3,217 7.0 -11.0°
Reaches altitude 10° 19:38:01 10° 211° (SSW) 2,296 6.3 -11.2°
Maximum altitude 19:43:13 71° 296° (WNW) 811 4.3 -11.8°
Drops below altitude 10° 19:48:29 10° 21° (NNE) 2,321 6.9 -12.4°
Sets 19:50:53 0° 23° (NNE) 3,255 7.6 -12.6°
